Weather History for Oxford, MS

Change the Weather History Date:

Monday, February 11, 2013

  Actual Average Record
Temperature  
Mean Temperature 50 °F -  
Max Temperature 57 °F 54 °F 76 °F (1932)
Min Temperature 42 °F 28 °F 5 °F (2011)
Degree Days  
Heating Degree Days 16    
Moisture  
Dew Point 39 °F    
Average Humidity 73    
Maximum Humidity 100    
Minimum Humidity 43    
Precipitation  
Precipitation 0.00 in - - ()
Sea Level Pressure  
Sea Level Pressure 30.13 in    
Wind  
Wind Speed 3 mph (North)    
Max Wind Speed 9 mph    
Max Gust Speed -    
Visibility 9 miles    
Events Fog    
Averages and records for this station are not official NWS values.
T = Trace of Precipitation, MM = Missing Value Source: NWS Daily Summary

Daily Weather History Graph

Daily Weather History Graph

Search for Another Location

Airport:

Trip Planner

Search our weather history database for the weather conditions in past years. The results will help you decide how hot, cold, wet, or windy it might be!

Date:

Astronomy

Feb. 11, 2013 Rise Set
Actual Time 6:47 AM CST 5:38 PM CST
Civil Twilight 6:21 AM CST 6:04 PM CST
Nautical Twilight 5:51 AM CST 6:33 PM CST
Astronomical Twilight 5:22 AM CST 7:02 PM CST
Moon 7:17 AM CST (2/11) 7:27 PM CST (2/11)
Length of Visible Light 11h 42m
Length of Day
10h 51m
Waxing Crescent, 3% of the Moon is Illuminated
Feb 11
Waxing Crescent
Feb 17
First Quarter
Feb 25
Full
Mar 4
Last Quarter
Mar 11
New

Hourly Weather History & Observations

Time (CST) Temp. Windchill Dew Point Humidity Pressure Visibility Wind Dir Wind Speed Gust Speed Precip Events Conditions
12:15 AM 57.2 °F - 55.4 °F 94% 30.01 in 10.0 mi West 5.8 mph - N/A   Clear
12:35 AM 57.2 °F - 55.4 °F 94% 30.01 in 10.0 mi West 4.6 mph - N/A   Partly Cloudy
12:55 AM 57.2 °F - 55.4 °F 94% 30.02 in 10.0 mi West 4.6 mph - N/A   Clear
1:15 AM 57.2 °F - 55.4 °F 94% 30.02 in 9.0 mi West 4.6 mph - N/A   Clear
1:35 AM 55.4 °F - 53.6 °F 94% 30.03 in 10.0 mi WNW 5.8 mph - N/A   Clear
1:55 AM 55.4 °F - 53.6 °F 94% 30.04 in 10.0 mi WNW 3.5 mph - N/A   Clear
2:15 AM 55.4 °F - 53.6 °F 94% 30.04 in 10.0 mi Calm Calm - N/A   Clear
2:35 AM 53.6 °F - 53.6 °F 100% 30.04 in 9.0 mi Calm Calm - N/A   Clear
2:55 AM 51.8 °F - 50.0 °F 94% 30.04 in 1.0 mi Calm Calm - N/A   Clear
3:15 AM 50.0 °F - 50.0 °F 100% 30.03 in 5.0 mi Calm Calm - N/A   Clear
3:35 AM 50.0 °F - 50.0 °F 100% 30.04 in 3.0 mi Calm Calm - N/A   Clear
3:55 AM 48.2 °F - 48.2 °F 100% 30.05 in 0.5 mi Calm Calm - N/A Fog Fog
4:15 AM 46.4 °F - 46.4 °F 100% 30.06 in 8.0 mi Calm Calm - N/A   Clear
4:35 AM 48.2 °F - 48.2 °F 100% 30.07 in 10.0 mi Calm Calm - N/A   Clear
4:55 AM 48.2 °F - 46.4 °F 93% 30.09 in 10.0 mi Calm Calm - N/A   Clear
5:15 AM 48.2 °F - 46.4 °F 93% 30.11 in 10.0 mi Calm Calm - N/A   Clear
5:35 AM 46.4 °F - 46.4 °F 100% 30.11 in 10.0 mi Calm Calm - N/A   Clear
5:55 AM 46.4 °F - 46.4 °F 100% 30.11 in 10.0 mi Calm Calm - N/A   Clear
6:15 AM 46.4 °F - 46.4 °F 100% 30.12 in 8.0 mi Calm Calm - N/A   Clear
6:35 AM 44.6 °F 43.1 °F 44.6 °F 100% 30.12 in 10.0 mi NE 3.5 mph - N/A   Clear
6:55 AM 46.4 °F 45.2 °F 37.4 °F 71% 30.13 in 10.0 mi NNE 3.5 mph - N/A   Clear
7:15 AM 46.4 °F 43.5 °F 32.0 °F 57% 30.14 in 9.0 mi North 5.8 mph - N/A   Clear
7:35 AM 46.4 °F 43.5 °F 32.0 °F 57% 30.16 in 3.0 mi NNW 5.8 mph - N/A   Haze
7:55 AM 46.4 °F 45.2 °F 32.0 °F 57% 30.18 in 8.0 mi North 3.5 mph - N/A   Clear
8:15 AM 46.4 °F - 33.8 °F 62% 30.18 in 9.0 mi Calm Calm - N/A   Clear
8:35 AM 46.4 °F - 32.0 °F 57% 30.18 in 8.0 mi Calm Calm - N/A   Clear
8:55 AM 46.4 °F 44.3 °F 32.0 °F 57% 30.17 in 9.0 mi North 4.6 mph - N/A   Clear
9:15 AM 46.4 °F - 32.0 °F 57% 30.19 in 9.0 mi Calm Calm - N/A   Clear
9:55 AM 46.4 °F 44.3 °F 32.0 °F 57% 30.22 in 8.0 mi North 4.6 mph - N/A   Clear
10:15 AM 46.4 °F - 32.0 °F 57% 30.22 in 9.0 mi Calm Calm - N/A   Clear
10:35 AM 46.4 °F - 32.0 °F 57% 30.20 in 9.0 mi Calm Calm - N/A   Clear
10:55 AM 46.4 °F 45.2 °F 32.0 °F 57% 30.21 in 9.0 mi NE 3.5 mph - N/A   Clear
11:15 AM 46.4 °F 45.2 °F 30.2 °F 53% 30.22 in 9.0 mi North 3.5 mph - N/A   Clear
11:35 AM 46.4 °F 42.9 °F 28.4 °F 50% 30.22 in 9.0 mi North 6.9 mph - N/A   Clear
11:55 AM 46.4 °F 44.3 °F 28.4 °F 50% 30.22 in 9.0 mi North 4.6 mph - N/A   Clear
12:15 PM 46.4 °F 45.2 °F 28.4 °F 50% 30.22 in 10.0 mi North 3.5 mph - N/A   Clear
12:35 PM 48.2 °F - 30.2 °F 50% 30.19 in 9.0 mi NE 5.8 mph - N/A   Clear
12:55 PM 48.2 °F - 30.2 °F 50% 30.18 in 9.0 mi ENE 9.2 mph - N/A   Clear
1:15 PM 50.0 °F - 28.4 °F 43% 30.17 in 10.0 mi NNE 4.6 mph - N/A   Clear
1:55 PM 50.0 °F - 28.4 °F 43% 30.16 in 9.0 mi NNE 4.6 mph - N/A   Clear
2:15 PM 50.0 °F - 30.2 °F 47% 30.15 in 9.0 mi NNE 4.6 mph - N/A   Clear
2:35 PM 51.8 °F - 30.2 °F 44% 30.15 in 9.0 mi NNE 4.6 mph - N/A   Partly Cloudy
2:55 PM 50.0 °F - 32.0 °F 50% 30.14 in 9.0 mi ENE 5.8 mph - N/A   Clear
3:15 PM 50.0 °F - 30.2 °F 47% 30.14 in 9.0 mi NE 4.6 mph - N/A   Clear
3:35 PM 50.0 °F - 32.0 °F 50% 30.14 in 9.0 mi East 3.5 mph - N/A   Clear
3:55 PM 50.0 °F - 32.0 °F 50% 30.13 in 9.0 mi East 3.5 mph - N/A   Clear
4:55 PM 50.0 °F - 32.0 °F 50% 30.15 in 9.0 mi Calm Calm - N/A   Clear
5:15 PM 48.2 °F - 32.0 °F 54% 30.13 in 9.0 mi Calm Calm - N/A   Clear
5:35 PM 48.2 °F - 33.8 °F 58% 30.13 in 9.0 mi Calm Calm - N/A   Clear
5:55 PM 46.4 °F - 35.6 °F 66% 30.14 in 10.0 mi Calm Calm - N/A   Clear
6:15 PM 48.2 °F - 33.8 °F 58% 30.14 in 10.0 mi Calm Calm - N/A   Clear
6:35 PM 46.4 °F - 39.2 °F 76% 30.13 in 10.0 mi Calm Calm - N/A   Clear
6:55 PM 44.6 °F - 39.2 °F 81% 30.14 in 10.0 mi Calm Calm - N/A   Clear
7:15 PM 46.4 °F - 37.4 °F 71% 30.20 in 10.0 mi Calm Calm - N/A   Clear
7:55 PM 44.6 °F 43.1 °F 39.2 °F 81% 30.14 in 10.0 mi NNE 3.5 mph - N/A   Clear
8:15 PM 44.6 °F - 39.2 °F 81% 30.16 in 10.0 mi Calm Calm - N/A   Clear
8:55 PM 44.6 °F - 39.2 °F 81% 30.17 in 10.0 mi Calm Calm - N/A   Clear
9:15 PM 44.6 °F - 39.2 °F 81% 30.17 in 10.0 mi Calm Calm - N/A   Clear
9:55 PM 44.6 °F - 39.2 °F 81% 30.15 in 10.0 mi Calm Calm - N/A   Clear
10:15 PM 44.6 °F 41.4 °F 39.2 °F 81% 30.19 in 10.0 mi NW 5.8 mph - N/A   Clear
10:35 PM 44.6 °F - 39.2 °F 81% 30.18 in 10.0 mi Calm Calm - N/A   Clear
10:55 PM 44.6 °F - 39.2 °F 81% 30.17 in 10.0 mi Calm Calm - N/A   Clear
11:15 PM 44.6 °F - 39.2 °F 81% 30.18 in 10.0 mi Calm Calm - N/A   Clear
11:35 PM 42.8 °F - 39.2 °F 87% 30.17 in 10.0 mi Calm Calm - N/A   Clear
11:55 PM 42.8 °F - 39.2 °F 87% 30.16 in 10.0 mi Calm Calm - N/A   Clear